QPF
0.00 0.00 0.00 0.00 0.00 0.00 0.00 0.00 0.00 0.00 0.00 0.00 0.00 0.00 0.00 0.00 0.00 0.00 0.00 0.00 0.00 0.00 0.00 0.00 0.00 0.00 0.00 0.00 0.00 0.00 0.00 0.00 0.00 0.00 0.00 0.00 0.00 0.00 0.00 0.00 0.00 0.00 0.00 0.00
0.00 0.00 0.00 0.00 0.00 0.00 0.00 0.00 0.00 0.00 0.00 0.00 0.00 0.00 0.00 0.00 0.00 0.00 0.00 0.00 0.00 0.00 0.00 0.00 0.00 0.00 0.00 0.00 0.00 0.00 0.00 0.00 0.00 0.00 0.00 0.00 0.00 0.00 0.00 0.00 0.00 0.00 0.00 0.00
0.00 0.00 0.00 0.00 0.00 0.00 0.00 0.00 0.00 0.00 0.00 0.00 0.00 0.00 0.00 0.00 0.00 0.00 0.00 0.00 0.00 0.00 0.00 0.00 0.00 0.00 0.00 0.00 0.00 0.00 0.00 0.00 0.00 0.00 0.00 0.00 0.00 0.00 0.00 0.00 0.00 0.00 0.00 0.00
0.00 0.00 0.00 0.00 0.00 0.00 0.00 0.00 0.00 0.00 0.00 0.00 0.00 0.00 0.00 0.00 0.00 0.00 0.00 0.00 0.00 0.00 0.00 0.00 0.00 0.00 0.00 0.00 0.00 0.00 0.00 0.00 0.00 0.00 0.00 0.00 0.00 0.00 0.00 0.00 0.00 0.00 0.00 0.00
0.00 0.00 0.00 0.00 0.00 0.00 0.00 0.00 0.00 0.00 0.00 0.00 0.00 0.00 0.00 0.00 0.00 0.00 0.00 0.00 0.00 0.00 0.00 0.00 0.00 0.00 0.00 0.00 0.00 0.00 0.00 0.00 0.00 0.00 0.00 0.00 0.00 0.00 0.00 0.00 0.00 0.00 0.00 0.00
0.00 0.00 0.00 0.00 0.00 0.00 0.00 0.00 0.00 0.00 0.00 0.00 0.00 0.00 0.00 0.00 0.00 0.00 0.00 0.00 0.00 0.00 0.00 0.00 0.00 0.00 0.00 0.00 0.00 0.00 0.00 0.00 0.00 0.00 0.00 0.00 0.00 0.00 0.00 0.00 0.00 0.00 0.00 0.00
0.00 0.00 0.00 0.00 0.00 0.00 0.00 0.00 0.00 0.00 0.00 0.00 0.00 0.00 0.00 0.00 0.00 0.00 0.00 0.00 0.00 0.00 0.00 0.00 0.00 0.00 0.00 0.00 0.00 0.00 0.00 0.00 0.00 0.00 0.00 0.00 0.00 0.00 0.00 0.00 0.00 0.00 0.00 0.00
0.00 0.00 0.00 0.00 0.00 0.00 0.00 0.00 0.00 0.00 0.00 0.00 0.00 0.00 0.00 0.00 0.00 0.00 0.00 0.00 0.00 0.00 0.00 0.00 0.00 0.00 0.00 0.00 0.00 0.00 0.00 0.00 0.00 0.00 0.00 0.00 0.00 0.00 0.00 0.00 0.00 0.00 0.00 0.00
0.00 0.00 0.00 0.00 0.00 0.00 0.00 0.00 0.00 0.00 0.00 0.00 0.00 0.00 0.00 0.00 0.00 0.00 0.00 0.00 0.00 0.00 0.00 0.00 0.00 0.00 0.00 0.00 0.00 0.00 0.00 0.00 0.00 0.00 0.00 0.00 0.00 0.00 0.00 0.00 0.00 0.00 0.00 0.00
0.00 0.00 0.00 0.00 0.00 0.00 0.00 0.00 0.00 0.00 0.00 0.00 0.00 0.00 0.00 0.00 0.00 0.00 0.00 0.00 0.00 0.00 0.00 0.00 0.00 0.00 0.00 0.00 0.00 0.00 0.00 0.00 0.00 0.00 0.00 0.00 0.00 0.00 0.00 0.00 0.00 0.00 0.00 0.00
0.00 0.00 0.00 0.00 0.00 0.00 0.00 0.00 0.00 0.00 0.00 0.00 0.00 0.00 0.00 0.00 0.00 0.00 0.00 0.00 0.00 0.00 0.00 0.00 0.00 0.00 0.00 0.00 0.00 0.00 0.00 0.00 0.00 0.00 0.00 0.00 0.00 0.00 0.00 0.00 0.00 0.00 0.00 0.00
0.00 0.00 0.00 0.00 0.00 0.00 0.00 0.00 0.00 0.00 0.00 0.00 0.00 0.00 0.00 0.00 0.00 0.00 0.00 0.00 0.00 0.00 0.00 0.00 0.00 0.00 0.00 0.00 0.00 0.00 0.00 0.00 0.00 0.00 0.00 0.00 0.00 0.00 0.00 0.00 0.00 0.00 0.00 0.00
0.00 0.00 0.00 0.00 0.00 0.00 0.00 0.00 0.00 0.00 0.00 0.00 0.00 0.00 0.00 0.00 0.00 0.00 0.00 0.00 0.00 0.00 0.00 0.00 0.00 0.00 0.00 0.00 0.00 0.00 0.00 0.00 0.00 0.00 0.00 0.00 0.00 0.00 0.00 0.00 0.00 0.00 0.00 0.00
0.00 0.00 0.00 0.00 0.00 0.00 0.00 0.00 0.00 0.00 0.00 0.00 0.00 0.00 0.00 0.00 0.00 0.00 0.00 0.00 0.00 0.00 0.00 0.00 0.00 0.00 0.00 0.00 0.00 0.00 0.00 0.00 0.00 0.00 0.00 0.00 0.00 0.00 0.00 0.00 0.00 0.00 0.00 0.00
0.00 0.00 0.00 0.00 0.00 0.00 0.00 0.00 0.00 0.00 0.00 0.00 0.00 0.00 0.00 0.00 0.00 0.00 0.00 0.00 0.00 0.00 0.00 0.00 0.00 0.00 0.00 0.00 0.00 0.00 0.00 0.00 0.00 0.00 0.00 0.00 0.00 0.00 0.00 0.00 0.00 0.00 0.00 0.00
0.00 0.00 0.00 0.00 0.00 0.00 0.00 0.00 0.00 0.00 0.00 0.00 0.00 0.00 0.00 0.00 0.00 0.00 0.00 0.00 0.00 0.00 0.00 0.00 0.00 0.00 0.00 0.00 0.00 0.00 0.00 0.00 0.00 0.00 0.00 0.00 0.00 0.00 0.00 0.00 0.00 0.00 0.00 0.00
0.00 0.00 0.00 0.00 0.00 0.00 0.00 0.00 0.00 0.00 0.00 0.00 0.00 0.00 0.00 0.00 0.00 0.00 0.00 0.00 0.00 0.00 0.00 0.00 0.00 0.00 0.00 0.00 0.00 0.00 0.00 0.00 0.00 0.00 0.00 0.00 0.00 0.00 0.00 0.00 0.00 0.00 0.00 0.00
0.00 0.00 0.00 0.00 0.00 0.00 0.00 0.00 0.00 0.00 0.00 0.00 0.00 0.00 0.00 0.00 0.00 0.00 0.00 0.00 0.00 0.00 0.00 0.00 0.00 0.00 0.00 0.00 0.00 0.00 0.00 0.00 0.00 0.00 0.00 0.00 0.00 0.00 0.00 0.00 0.00 0.00 0.00 0.00
0.00 0.00 0.00 0.00 0.00 0.00 0.00 0.00 0.00 0.00 0.00 0.00 0.00 0.00 0.00 0.00 0.00 0.00 0.00 0.00 0.00 0.00 0.00 0.00 0.00 0.00 0.00 0.00 0.00 0.00 0.00 0.00 0.00 0.00 0.00 0.00 0.00 0.00 0.00 0.00 0.00 0.00 0.00 0.00
0.00 0.00 0.00 0.00 0.00 0.00 0.00 0.00 0.00 0.00 0.00 0.00 0.00 0.00 0.00 0.00 0.00 0.00 0.00 0.00 0.00 0.00 0.00 0.00 0.00 0.00 0.00 0.00 0.00 0.00 0.00 0.00 0.00 0.00 0.00 0.00 0.00 0.00 0.00 0.00 0.00 0.00 0.00 0.00
0.00 0.00 0.00 0.00 0.00 0.00 0.00 0.00 0.00 0.00 0.00 0.00 0.00 0.00 0.00 0.00 0.00 0.00 0.00 0.00 0.00 0.00 0.00 0.00 0.00 0.00 0.00 0.00 0.00 0.00 0.00 0.00 0.00 0.00 0.00 0.00 0.00 0.00 0.00 0.00 0.00 0.00 0.00 0.00
0.00 0.00 0.00 0.00 0.00 0.00 0.00 0.00 0.00 0.00 0.00 0.00 0.00 0.00 0.00 0.00 0.00 0.00 0.00 0.00 0.00 0.00 0.00 0.00 0.00 0.00 0.00 0.00 0.00 0.00 0.00 0.00 0.00 0.00 0.00 0.00 0.00 0.00 0.00 0.00 0.00 0.00 0.00 0.00
0.00 0.00 0.00 0.00 0.00 0.00 0.00 0.00 0.00 0.00 0.00 0.00 0.00 0.00 0.00 0.00 0.00 0.00 0.00 0.00 0.00 0.00 0.00 0.00 0.00 0.00 0.00 0.00 0.00 0.00 0.00 0.00 0.00 0.00 0.00 0.00 0.00 0.00 0.00 0.00 0.00 0.00 0.00 0.00
0.00 0.00 0.00 0.00 0.00 0.00 0.00 0.00 0.00 0.00 0.00 0.00 0.00 0.00 0.00 0.00 0.00 0.00 0.00 0.00 0.00 0.00 0.00 0.00 0.00 0.00 0.00 0.00 0.00 0.00 0.00 0.00 0.00 0.00 0.00 0.00 0.00 0.00 0.00 0.00 0.00 0.00 0.00 0.00
0.00 0.00 0.00 0.00 0.00 0.00 0.00 0.00 0.00 0.00 0.00 0.00 0.00 0.00 0.00 0.00 0.00 0.00 0.00 0.00 0.00 0.00 0.00 0.00 0.00 0.00 0.00 0.00 0.00 0.00 0.00 0.00 0.00 0.00 0.00 0.00 0.00 0.00 0.00 0.00 0.00 0.00 0.00 0.00
0.00 0.00 0.00 0.00 0.00 0.00 0.00 0.00 0.00 0.00 0.00 0.00 0.00 0.00 0.00 0.00 0.00 0.00 0.00 0.00 0.00 0.00 0.00 0.00 0.00 0.00 0.00 0.00 0.00 0.00 0.00 0.00 0.00 0.00 0.00 0.00 0.00 0.00 0.00 0.00 0.00 0.00 0.00 0.00
MSLP
1010.24 1011.07 1011.35 1011.32 1011.33 1011.34 1011.49 1011.56 1011.49 1011.24 1011.22 1011.60 1012.04 1012.40 1013.09 1013.83 1014.63 1015.15 1015.67 1015.94 1016.14 1016.00 1015.27 1015.29 1015.54 1015.81 1015.89 1015.87 1015.92 1015.79 1015.73 1015.57 1015.70 1015.83 1016.02 1016.01 1015.75 1015.42 1015.00 1014.64 1014.41 1014.26 1014.03 1013.72
1010.75 1010.90 1010.42 1010.60 1010.98 1011.20 1011.26 1011.49 1011.72 1011.61 1011.53 1011.81 1012.36 1012.79 1013.25 1013.91 1014.33 1014.58 1014.96 1015.57 1015.71 1015.74 1015.40 1015.30 1015.38 1015.48 1015.63 1015.56 1015.59 1015.73 1015.53 1015.54 1015.60 1015.79 1015.71 1015.71 1015.58 1015.25 1015.00 1014.56 1014.20 1013.85 1013.66 1013.49
1010.38 1010.12 1009.92 1010.17 1010.71 1011.03 1011.49 1011.65 1011.92 1012.15 1012.20 1012.47 1012.91 1013.65 1013.87 1014.12 1014.38 1014.39 1014.51 1014.72 1015.21 1015.30 1015.26 1015.17 1015.08 1015.12 1015.10 1015.30 1015.37 1015.46 1015.44 1015.41 1015.52 1015.64 1015.80 1015.70 1015.51 1015.22 1014.94 1014.42 1014.05 1013.65 1013.38 1013.00
1010.16 1009.70 1009.69 1009.96 1010.43 1010.94 1011.60 1011.75 1012.24 1012.74 1013.42 1014.04 1014.22 1014.99 1014.65 1014.74 1014.59 1014.43 1014.52 1014.57 1014.84 1014.92 1014.90 1014.90 1014.79 1014.75 1015.06 1015.15 1015.15 1015.04 1015.31 1015.63 1015.75 1015.85 1016.00 1016.14 1016.10 1015.90 1015.18 1014.73 1014.09 1013.52 1013.04 1012.42
1010.02 1009.73 1009.64 1009.89 1010.21 1010.84 1011.77 1012.18 1013.25 1013.82 1014.67 1015.19 1015.56 1015.98 1015.05 1015.08 1014.74 1014.60 1014.58 1014.69 1014.68 1014.66 1014.62 1014.60 1014.67 1014.80 1014.73 1014.95 1015.28 1015.38 1015.61 1015.88 1016.12 1016.20 1016.24 1016.30 1016.17 1015.97 1015.36 1014.75 1013.90 1013.21 1012.66 1012.13
1009.98 1009.66 1009.54 1009.68 1010.27 1010.95 1012.04 1013.21 1014.71 1015.71 1016.34 1016.76 1016.35 1016.53 1015.84 1015.28 1014.52 1014.48 1014.49 1014.49 1014.50 1014.48 1014.44 1014.35 1014.54 1014.52 1015.08 1015.42 1015.78 1015.94 1016.02 1016.44 1016.44 1016.32 1016.40 1016.48 1016.35 1015.85 1015.13 1014.36 1013.66 1012.92 1012.32 1011.82
1010.50 1010.05 1009.69 1009.68 1010.63 1011.66 1012.74 1014.53 1016.38 1017.58 1018.24 1017.92 1016.88 1016.86 1015.28 1014.36 1014.02 1013.86 1014.04 1014.25 1014.30 1014.28 1014.32 1014.38 1014.55 1015.19 1015.69 1016.21 1016.36 1016.47 1016.68 1016.77 1016.75 1016.75 1016.64 1016.52 1016.26 1015.82 1015.20 1014.43 1013.60 1012.84 1012.10 1011.52
1011.07 1010.76 1010.02 1009.90 1010.47 1011.76 1013.22 1014.67 1016.64 1018.14 1019.02 1018.60 1017.50 1016.48 1014.63 1013.98 1013.58 1013.56 1013.68 1013.87 1014.08 1014.12 1014.32 1014.87 1015.39 1015.80 1016.43 1016.77 1016.94 1017.14 1017.13 1017.09 1017.12 1016.96 1016.76 1016.49 1016.12 1015.65 1015.08 1014.31 1013.57 1012.72 1011.77 1010.84
1011.12 1010.84 1010.12 1010.02 1010.47 1011.37 1013.56 1014.92 1016.18 1018.06 1019.64 1019.41 1017.85 1016.28 1014.62 1014.02 1013.84 1013.73 1013.80 1013.97 1014.21 1014.33 1014.87 1015.58 1016.05 1016.61 1017.00 1017.21 1017.52 1017.70 1017.71 1017.58 1017.40 1017.16 1016.86 1016.45 1015.93 1015.47 1014.76 1013.82 1012.92 1012.02 1011.14 1010.36
1010.72 1011.09 1010.66 1010.48 1010.66 1011.89 1012.55 1014.25 1016.25 1018.08 1019.72 1020.00 1018.54 1017.16 1015.67 1014.62 1014.16 1013.96 1014.10 1014.25 1014.47 1014.80 1015.61 1016.23 1016.82 1017.17 1017.54 1017.90 1018.16 1018.21 1018.09 1017.99 1017.72 1017.43 1017.01 1016.31 1015.66 1014.89 1014.06 1013.38 1012.57 1011.70 1010.74 1009.91
1010.87 1011.35 1011.72 1011.39 1011.29 1011.90 1013.30 1014.40 1016.19 1017.75 1019.08 1019.81 1019.13 1017.41 1014.66 1014.16 1013.70 1013.84 1013.86 1014.62 1014.87 1015.54 1016.16 1016.79 1017.32 1017.74 1018.15 1018.30 1018.24 1018.28 1018.26 1018.10 1017.79 1017.50 1016.79 1016.08 1015.33 1014.49 1013.88 1013.12 1012.18 1011.22 1010.21 1009.32
1010.78 1011.72 1012.46 1012.07 1012.00 1011.88 1012.44 1013.67 1015.27 1017.50 1019.06 1019.47 1018.86 1016.38 1014.46 1014.04 1013.92 1013.99 1014.42 1014.71 1015.32 1015.92 1016.72 1017.42 1017.87 1018.22 1018.22 1018.22 1018.48 1018.57 1018.46 1018.33 1017.98 1017.34 1016.74 1016.00 1015.22 1014.45 1013.54 1012.63 1011.70 1010.66 1009.60 1008.65
1010.52 1012.00 1012.76 1012.84 1012.90 1012.41 1012.62 1013.56 1014.75 1016.26 1017.44 1018.30 1018.33 1015.99 1014.41 1014.01 1014.08 1014.34 1014.73 1015.27 1015.98 1016.70 1017.40 1017.94 1018.10 1018.38 1018.66 1019.04 1019.08 1018.87 1018.78 1018.40 1017.87 1017.36 1016.63 1015.85 1015.02 1014.15 1013.24 1012.22 1011.12 1010.12 1009.18 1008.22
1009.91 1011.89 1012.09 1012.34 1012.11 1012.03 1012.72 1013.23 1014.14 1015.33 1016.82 1017.25 1016.79 1015.68 1014.61 1014.49 1014.74 1014.87 1015.23 1015.87 1016.55 1017.16 1017.66 1018.21 1018.74 1019.09 1019.61 1019.75 1019.52 1019.33 1018.91 1018.41 1017.92 1017.26 1016.54 1015.74 1014.84 1013.91 1012.94 1011.87 1010.88 1009.98 1009.03 1007.97
1010.46 1011.74 1012.20 1012.16 1011.90 1011.81 1012.24 1012.90 1013.71 1014.60 1015.26 1015.92 1015.61 1015.60 1014.81 1014.78 1015.06 1015.36 1015.64 1016.26 1016.94 1017.60 1018.28 1018.94 1019.41 1020.02 1020.29 1020.06 1019.82 1019.43 1018.99 1018.52 1017.90 1017.20 1016.46 1015.58 1014.74 1013.87 1012.84 1011.84 1010.87 1009.93 1008.93 1007.95
1011.14 1012.10 1012.36 1012.72 1012.28 1012.03 1012.32 1012.54 1013.14 1013.89 1014.35 1014.76 1015.02 1015.08 1014.94 1015.10 1015.35 1015.75 1016.03 1016.68 1017.55 1018.33 1019.12 1019.82 1020.34 1020.48 1020.45 1020.34 1020.13 1019.73 1019.19 1018.52 1017.95 1017.20 1016.46 1015.68 1014.93 1014.00 1013.00 1011.98 1010.88 1009.91 1008.92 1007.94
1011.37 1012.08 1012.80 1013.16 1012.83 1012.78 1012.80 1012.06 1012.36 1013.12 1013.56 1014.10 1014.74 1014.51 1015.08 1015.68 1015.96 1016.35 1016.78 1017.42 1018.50 1019.31 1020.03 1020.54 1020.66 1020.92 1020.95 1020.86 1020.53 1019.92 1019.25 1018.60 1018.00 1017.31 1016.68 1015.90 1015.05 1014.12 1013.14 1012.15 1011.14 1010.14 1009.22 1008.29
1012.03 1012.16 1012.90 1013.73 1013.69 1013.35 1012.02 1011.54 1011.65 1012.76 1013.72 1013.98 1014.25 1014.76 1015.28 1015.75 1016.64 1017.22 1017.66 1018.34 1019.25 1019.89 1020.52 1020.96 1021.40 1021.42 1021.43 1021.17 1020.64 1020.14 1019.52 1018.89 1018.16 1017.49 1016.90 1016.14 1015.26 1014.35 1013.41 1012.50 1011.59 1010.65 1009.76 1008.79
1012.06 1012.23 1013.37 1014.00 1014.02 1013.14 1012.45 1012.10 1012.19 1012.43 1013.88 1014.06 1014.30 1015.10 1015.60 1016.17 1016.77 1018.20 1018.65 1019.20 1020.09 1020.79 1021.32 1021.81 1021.95 1021.90 1021.69 1021.30 1020.88 1020.33 1019.75 1019.10 1018.45 1017.72 1017.12 1016.38 1015.51 1014.66 1013.89 1012.98 1012.12 1011.26 1010.37 1009.43
1012.42 1012.51 1012.81 1014.70 1014.08 1013.16 1011.91 1011.42 1011.67 1012.27 1013.87 1013.86 1014.38 1015.18 1015.81 1016.57 1017.78 1018.74 1019.46 1020.17 1020.84 1021.40 1021.88 1022.19 1022.13 1022.10 1021.91 1021.58 1020.98 1020.40 1019.76 1019.20 1018.71 1018.14 1017.47 1016.72 1015.93 1015.22 1014.49 1013.69 1012.81 1012.02 1011.19 1010.34
1013.95 1013.88 1013.81 1014.12 1013.73 1012.93 1011.72 1011.58 1011.76 1012.82 1013.58 1013.50 1014.25 1014.97 1015.93 1017.10 1017.93 1018.80 1019.93 1020.76 1021.35 1021.99 1022.38 1022.38 1022.33 1022.28 1022.02 1021.54 1021.01 1020.46 1020.09 1019.61 1019.23 1018.44 1017.78 1016.99 1016.33 1015.80 1015.06 1014.32 1013.49 1012.59 1011.82 1011.03
1014.39 1014.46 1014.48 1014.25 1013.62 1012.90 1011.36 1011.96 1012.08 1012.24 1012.87 1013.32 1014.33 1015.08 1016.26 1017.35 1018.54 1019.48 1020.39 1021.28 1021.97 1022.51 1022.64 1022.59 1022.54 1022.33 1021.95 1021.58 1021.13 1020.78 1020.44 1020.15 1019.51 1018.77 1018.12 1017.48 1016.93 1016.29 1015.55 1014.90 1014.25 1013.41 1012.69 1011.82
1014.42 1013.92 1014.17 1014.32 1013.35 1012.25 1011.71 1011.48 1011.49 1011.82 1012.48 1013.79 1014.41 1015.32 1016.42 1017.76 1018.95 1019.92 1021.00 1021.82 1022.48 1022.81 1022.85 1022.86 1022.67 1022.46 1022.16 1021.93 1021.70 1021.29 1020.98 1020.49 1019.93 1019.26 1018.71 1018.06 1017.32 1016.67 1016.16 1015.62 1015.00 1014.21 1013.65 1012.83
1013.78 1013.46 1013.77 1013.84 1012.79 1012.53 1012.01 1011.72 1011.85 1012.19 1012.75 1013.68 1014.36 1015.38 1016.54 1017.83 1019.16 1020.28 1021.23 1022.12 1022.71 1022.96 1022.96 1022.97 1022.86 1022.69 1022.60 1022.36 1022.08 1021.81 1021.43 1021.00 1020.38 1019.79 1019.08 1018.42 1017.87 1017.18 1016.69 1016.24 1015.76 1015.17 1014.62 1013.97
1012.88 1012.54 1012.85 1012.85 1012.58 1012.24 1012.08 1012.04 1012.26 1012.76 1013.20 1013.97 1014.98 1015.71 1016.73 1017.86 1019.44 1020.38 1021.43 1022.35 1022.85 1023.02 1023.14 1023.37 1023.34 1023.22 1023.12 1022.81 1022.42 1022.02 1021.56 1021.15 1020.58 1020.04 1019.44 1018.83 1018.42 1017.98 1017.49 1017.10 1016.66 1016.20 1016.04 1015.42
1012.27 1011.95 1011.94 1012.00 1011.58 1011.78 1011.80 1012.15 1012.16 1012.93 1013.66 1014.23 1015.05 1016.32 1017.22 1018.02 1019.27 1020.48 1021.69 1022.49 1022.88 1023.12 1023.39 1023.72 1023.62 1023.43 1023.28 1022.92 1022.57 1022.11 1021.59 1021.26 1020.77 1020.24 1019.76 1019.43 1019.00 1018.50 1018.11 1017.66 1017.17 1016.65 1016.45 1015.97
Thickness
5736 5718 5711 5724 5722 5726 5723 5718 5716 5724 5733 5727 5715 5726 5720 5719 5718 5711 5708 5705 5702 5704 5714 5712 5707 5701 5697 5693 5687 5682 5678 5675 5669 5666 5660 5653 5650 5648 5649 5649 5649 5647 5647 5646
5716 5709 5728 5730 5727 5725 5723 5713 5709 5719 5725 5724 5716 5719 5719 5715 5715 5714 5711 5703 5701 5701 5704 5704 5701 5697 5691 5687 5681 5676 5673 5669 5664 5658 5654 5649 5645 5643 5641 5640 5640 5639 5638 5637
5709 5725 5733 5730 5721 5713 5710 5704 5707 5708 5715 5716 5715 5701 5705 5710 5711 5713 5711 5710 5703 5699 5696 5697 5697 5694 5689 5680 5675 5670 5667 5663 5658 5651 5644 5641 5637 5635 5633 5633 5632 5632 5630 5630
5714 5729 5728 5723 5718 5711 5702 5717 5713 5709 5696 5679 5696 5665 5689 5693 5697 5705 5703 5701 5699 5700 5697 5695 5693 5691 5683 5676 5672 5668 5661 5654 5648 5640 5633 5627 5622 5620 5621 5621 5623 5624 5623 5624
5708 5718 5718 5713 5716 5716 5703 5714 5704 5701 5682 5681 5680 5659 5676 5689 5695 5697 5696 5695 5697 5694 5692 5692 5688 5684 5682 5674 5664 5659 5652 5643 5635 5628 5622 5616 5611 5607 5608 5608 5612 5614 5614 5614
5710 5723 5723 5717 5719 5718 5707 5697 5678 5667 5660 5649 5671 5660 5665 5674 5688 5691 5695 5692 5692 5692 5691 5690 5685 5680 5671 5663 5655 5648 5643 5632 5625 5619 5610 5602 5597 5597 5599 5601 5601 5603 5603 5603
5699 5706 5718 5721 5704 5704 5690 5669 5636 5644 5632 5639 5663 5651 5669 5688 5692 5694 5689 5687 5688 5687 5685 5681 5679 5666 5659 5649 5643 5638 5629 5621 5614 5606 5599 5591 5587 5584 5583 5584 5586 5587 5589 5589
5671 5668 5700 5712 5703 5687 5683 5670 5624 5620 5615 5639 5653 5646 5671 5691 5692 5692 5688 5687 5685 5684 5678 5673 5663 5655 5645 5637 5631 5622 5616 5609 5601 5594 5588 5581 5576 5572 5570 5569 5570 5571 5573 5576
5663 5673 5704 5707 5705 5698 5673 5663 5664 5631 5620 5624 5641 5661 5679 5687 5684 5682 5679 5680 5678 5677 5669 5658 5650 5640 5632 5626 5617 5609 5602 5595 5588 5581 5574 5569 5564 5559 5557 5558 5559 5560 5561 5561
5680 5666 5693 5698 5700 5688 5684 5673 5648 5629 5620 5625 5630 5643 5647 5667 5669 5671 5670 5668 5670 5667 5654 5645 5635 5629 5621 5612 5604 5597 5589 5581 5574 5566 5561 5558 5553 5550 5549 5547 5546 5546 5548 5546
5677 5669 5671 5684 5681 5669 5663 5656 5643 5636 5618 5597 5592 5630 5664 5668 5669 5666 5666 5660 5660 5651 5641 5633 5625 5618 5609 5602 5597 5588 5578 5568 5563 5556 5552 5547 5543 5540 5536 5534 5534 5535 5535 5533
5679 5657 5646 5665 5675 5680 5678 5664 5649 5620 5628 5600 5597 5620 5670 5665 5666 5665 5662 5655 5650 5639 5629 5621 5614 5607 5602 5595 5586 5576 5566 5557 5551 5547 5541 5536 5531 5526 5524 5524 5525 5525 5526 5527
5676 5647 5631 5645 5654 5670 5668 5657 5645 5630 5621 5610 5598 5622 5662 5662 5661 5658 5649 5645 5637 5627 5619 5611 5605 5598 5589 5580 5572 5563 5554 5549 5544 5537 5532 5526 5520 5514 5512 5515 5518 5520 5521 5521
5678 5647 5646 5629 5652 5657 5654 5658 5650 5637 5611 5613 5612 5635 5651 5655 5646 5644 5640 5634 5625 5618 5611 5602 5592 5584 5574 5565 5557 5550 5546 5541 5536 5529 5523 5518 5512 5507 5507 5511 5514 5516 5517 5519
5668 5650 5651 5651 5658 5661 5658 5653 5645 5639 5634 5622 5633 5627 5639 5640 5636 5633 5633 5625 5619 5609 5600 5590 5581 5569 5559 5553 5548 5543 5538 5533 5528 5522 5517 5512 5510 5507 5508 5509 5510 5513 5515 5516
5653 5635 5648 5643 5651 5654 5649 5648 5642 5635 5634 5629 5630 5630 5637 5632 5630 5628 5627 5618 5606 5597 5588 5577 5566 5557 5549 5544 5539 5534 5529 5526 5520 5515 5511 5507 5504 5503 5506 5507 5510 5513 5515 5517
5644 5633 5630 5626 5637 5635 5622 5640 5642 5638 5636 5631 5617 5626 5624 5620 5620 5620 5615 5604 5593 5584 5573 5562 5553 5545 5539 5533 5527 5524 5521 5518 5513 5508 5503 5500 5500 5501 5503 5506 5508 5510 5513 5515
5623 5626 5620 5607 5618 5603 5635 5647 5648 5631 5623 5622 5621 5618 5618 5615 5604 5598 5596 5590 5582 5574 5563 5550 5538 5533 5527 5522 5519 5515 5512 5508 5505 5501 5495 5494 5496 5498 5500 5502 5504 5506 5508 5510
5621 5620 5603 5596 5595 5617 5623 5629 5627 5625 5616 5620 5617 5612 5609 5606 5604 5589 5582 5577 5567 5557 5547 5535 5528 5524 5519 5515 5511 5507 5503 5499 5496 5493 5490 5489 5491 5494 5496 5498 5499 5501 5503 5506
5610 5609 5611 5581 5593 5591 5618 5635 5635 5627 5594 5618 5614 5606 5603 5600 5589 5585 5573 5564 5554 5545 5535 5526 5523 5517 5511 5507 5503 5500 5497 5493 5487 5484 5483 5483 5485 5488 5490 5491 5493 5495 5497 5500
5580 5582 5585 5579 5587 5598 5621 5629 5629 5600 5602 5614 5610 5605 5598 5592 5587 5573 5561 5552 5544 5534 5526 5522 5516 5510 5506 5502 5498 5494 5489 5483 5476 5474 5477 5480 5482 5482 5485 5487 5489 5492 5494 5497
5569 5573 5571 5575 5577 5584 5624 5619 5612 5612 5610 5610 5604 5600 5592 5577 5569 5562 5554 5544 5534 5524 5520 5515 5510 5506 5502 5497 5492 5487 5480 5471 5468 5470 5473 5475 5476 5478 5481 5484 5485 5488 5490 5494
5564 5573 5574 5575 5582 5602 5612 5621 5616 5612 5611 5603 5600 5595 5583 5573 5565 5556 5545 5534 5524 5519 5514 5509 5505 5501 5496 5490 5482 5477 5470 5465 5463 5466 5468 5470 5473 5476 5477 5480 5482 5485 5487 5492
5566 5574 5569 5572 5591 5594 5604 5606 5609 5607 5607 5601 5597 5587 5580 5570 5560 5548 5537 5527 5519 5514 5510 5504 5501 5496 5489 5483 5477 5470 5463 5458 5458 5461 5466 5469 5470 5473 5474 5476 5478 5480 5482 5488
5567 5575 5574 5576 5583 5592 5598 5600 5601 5599 5598 5593 5586 5582 5574 5566 5551 5544 5532 5521 5515 5510 5504 5497 5493 5487 5481 5477 5471 5466 5461 5457 5457 5460 5463 5466 5467 5468 5470 5471 5472 5474 5473 5478
5567 5569 5567 5569 5587 5590 5593 5595 5598 5592 5589 5587 5582 5573 5567 5561 5550 5539 5525 5515 5512 5507 5498 5490 5486 5482 5478 5475 5470 5464 5461 5457 5457 5461 5463 5463 5464 5464 5464 5465 5467 5471 5472 5476